Weather in Nizhnyaya Pykhta

Russia / Udmurt Republic     57°41′23″N   53°59′33″E
temp.,
°C
wind,
m/s
gust,
m/s
humid.,
%
clouds,
%
prec.,
mm/h
press.,
hPa
HPBL,
m
12 may, wed
wed1201:00+12ne25882 0.0 102993
04:00+11ne248924 0.0 103067
07:00+14ene246747 0.0 1031237
10:00+19e22485 0.0 1030687
13:00+23e11372 0.0 10291468
16:00+24nne01330 0.0 10281805
19:00+21ene22465 0.0 102817
22:00+16e11554 0.0 102811
13 may, thu
thu1301:00+14ese11550 0.0 102810
04:00+13ene11581 0.0 102911
07:00+18e12490 0.0 1029117
10:00+23se22370 0.0 1028751
13:00+26sse22350 0.0 10271877
16:00+26s23358 0.0 10262203
19:00+23sse125018 0.0 102617
22:00+18ssw2257100 0.0 102614
14 may, fri
fri1401:00+16ssw115576 0.0 102611
04:00+16s225564 0.0 102647
07:00+19s365313 0.0 1026211
10:00+24ssw463755 0.0 10251223
13:00+24ssw463478 0.1 10241433
16:00+26ssw58295 0.1 10232259
19:00+23ssw384629 0.0 1021265
22:00+18ssw31258100 0.0 1022251
15 may, sat
sat1501:00+18sw31360100 0.0 1021324
04:00+15sw287282 0.0 1021156
07:00+19sw396082 0.0 1021313
10:00+24sw58395 0.0 1020928
13:00+27sw69307 0.0 10191894
16:00+28wsw692972 0.0 10182205
19:00+24sw4104089 0.0 1018517
22:00+18sw31260100 0.0 1018271
16 may, sun
sun1601:00+16sw3126584 0.0 1018234
04:00+15sw3116591 0.0 1018192
07:00+19sw39545 0.0 1018271
10:00+26sw47345 0.0 1018906
13:00+28sw69248 0.0 10172502
16:00+29sw58255 0.0 10163037
19:00+25ssw410395 0.0 1015397
22:00+20sw31256100 0.0 1015302